Location: Cussy
(47.0410°N, 4.6412°E)
Time: 05:37:13
(UTC+00:00)

NOSS 3-2 (C) - Pass Details

Date: 30 November 2020
Orbit: 789 x 1424 km, 63.4° (Epoch: 09 January)

Event Time Altitude Azimuth Distance (km) Brightness Sun altitude
Rises 18:52:12 0° 207° (SSW) 3,328 6.7 -29.5°
Reaches altitude 10° 18:54:31 10° 205° (SSW) 2,442 5.9 -29.9°
Enters shadow 18:57:48 37° 192° (SSW) 1,327 4.2 -30.5°
